Flint, MI

4:15 PM EDT on July 25, 2017 (GMT -0400)
Bishop International

Weather History for KFNT - November, 2010

Change the Weather History Date:

Monday, November 22, 2010

  Actual Average Record
Temperature  
Mean Temperature 60 °F 36 °F  
Max Temperature 63 °F 44 °F 65 °F (1934)
Min Temperature 57 °F 29 °F 9 °F (1929)
Degree Days  
Heating Degree Days 5 29  
Month to date heating degree days 514 540  
Since 1 July heating degree days 1060 1236  
Cooling Degree Days 0 0  
Month to date cooling degree days 0 0  
Year to date cooling degree days 861 531  
Growing Degree Days 10 (Base 50)    
Moisture  
Dew Point 55 °F    
Average Humidity 83    
Maximum Humidity 93    
Minimum Humidity 72    
Precipitation  
Precipitation 0.42 in 0.09 in 1.02 in (1992)
Month to date precipitation 0.85 2.01  
Year to date precipitation 23.28 28.79  
Snow  
Snow 0.00 in 0.10 in 3.20 in (2007)
Month to date snowfall 0.0 1.2  
Since 1 July snowfall 0.0 1.6  
Since 1 September snowfall 0.0 1.6  
Snow Depth 0.00 in    
Sea Level Pressure  
Sea Level Pressure 29.83 in    
Wind  
Wind Speed 11 mph (SSW)    
Max Wind Speed 18 mph    
Max Gust Speed 28 mph    
Visibility 8 miles    
Events Rain , Thunderstorm    
T = Trace of Precipitation, MM = Missing Value Source: NWS Daily Summary

Daily Weather History Graph

Daily Weather History Graph

Search for Another Location

Airport or City:

Trip Planner

Search our weather history database for the weather conditions in past years. The results will help you decide how hot, cold, wet, or windy it might be!

Date:

Astronomy

Nov. 22, 2010 Rise Set
Actual Time 7:35 AM EST 5:05 PM EST
Civil Twilight 7:04 AM EST 5:37 PM EST
Nautical Twilight 6:30 AM EST 6:11 PM EST
Astronomical Twilight 5:56 AM EST 6:45 PM EST
Moon 5:44 PM EST (11/22) 8:39 AM EST (11/22)
Length of Visible Light 10h 32m
Length of Day
9h 29m
Full, 99% of the Moon is Illuminated
Nov 22
Full
Nov 28
Last Quarter
Dec 5
New
Dec 13
First Quarter
Dec 21
Full

Hourly Weather History & Observations

Time (EST) Temp. Dew Point Humidity Pressure Visibility Wind Dir Wind Speed Gust Speed Precip Events Conditions
12:33 AM 60.8 °F 51.8 °F 72% 29.91 in 10.0 mi SW 11.5 mph 18.4 mph N/A   Overcast
12:40 AM 60.8 °F 51.8 °F 72% 29.91 in 10.0 mi SW 12.7 mph - N/A   Overcast
12:53 AM 59.0 °F 51.1 °F 75% 29.92 in 10.0 mi SSW 11.5 mph 20.7 mph N/A   Overcast
1:53 AM 61.0 °F 52.0 °F 72% 29.91 in 10.0 mi SW 10.4 mph 20.7 mph N/A   Overcast
2:53 AM 60.8 °F 53.6 °F 77% 29.90 in 10.0 mi SSW 12.7 mph 20.7 mph N/A   Overcast
3:53 AM 61.0 °F 53.1 °F 75% 29.89 in 10.0 mi SSW 12.7 mph - N/A   Overcast
4:53 AM 60.1 °F 53.1 °F 78% 29.90 in 10.0 mi SSW 10.4 mph - N/A   Overcast
5:53 AM 57.9 °F 54.0 °F 87% 29.90 in 7.0 mi SSW 11.5 mph - 0.02 in Rain Light Rain
6:53 AM 57.9 °F 54.0 °F 87% 29.89 in 10.0 mi SSW 9.2 mph - 0.00 in   Overcast
7:41 AM 57.2 °F 53.6 °F 88% 29.89 in 8.0 mi SSW 8.1 mph - 0.00 in Rain Light Rain
7:53 AM 57.0 °F 54.0 °F 89% 29.90 in 9.0 mi SSW 9.2 mph - 0.01 in   Overcast
8:24 AM 57.2 °F 55.4 °F 94% 29.89 in 5.0 mi SSW 9.2 mph - 0.01 in Rain Light Rain
8:40 AM 57.2 °F 55.4 °F 94% 29.89 in 6.0 mi SSW 9.2 mph - 0.01 in   Overcast
8:53 AM 57.9 °F 55.0 °F 90% 29.90 in 6.0 mi SSW 10.4 mph - 0.01 in   Overcast
9:10 AM 59.0 °F 55.4 °F 88% 29.89 in 6.0 mi SSW 9.2 mph - N/A   Mostly Cloudy
9:13 AM 59.0 °F 55.4 °F 88% 29.89 in 6.0 mi SSW 10.4 mph - N/A   Overcast
9:25 AM 59.0 °F 55.4 °F 88% 29.89 in 6.0 mi SSW 9.2 mph - N/A   Mostly Cloudy
9:40 AM 59.0 °F 55.4 °F 88% 29.89 in 7.0 mi SSW 12.7 mph - N/A   Overcast
9:53 AM 60.1 °F 55.9 °F 86% 29.89 in 7.0 mi SSW 12.7 mph - N/A   Mostly Cloudy
10:00 AM 60.8 °F 57.2 °F 88% 29.89 in 8.0 mi SSW 10.4 mph 17.3 mph N/A   Mostly Cloudy
10:45 AM 60.8 °F 57.2 °F 88% 29.89 in 10.0 mi SSW 9.2 mph - N/A   Overcast
10:53 AM 61.0 °F 57.0 °F 87% 29.89 in 10.0 mi SSW 11.5 mph - N/A   Overcast
11:53 AM 61.0 °F 57.0 °F 87% 29.87 in 10.0 mi SSW 10.4 mph - N/A   Overcast
12:28 PM 60.8 °F 57.2 °F 88% 29.85 in 10.0 mi SSW 11.5 mph - 0.00 in   Mostly Cloudy
12:48 PM 62.6 °F 55.4 °F 77% 29.85 in 10.0 mi SSW 10.4 mph 19.6 mph 0.00 in   Mostly Cloudy
12:53 PM 62.1 °F 55.9 °F 80% 29.85 in 10.0 mi SSW 9.2 mph - 0.00 in   Overcast
1:53 PM 60.1 °F 57.0 °F 90% 29.81 in 3.0 mi South 13.8 mph 21.9 mph 0.06 in Rain Rain
2:15 PM 60.8 °F 57.2 °F 88% 29.82 in 10.0 mi South 11.5 mph - 0.02 in   Scattered Clouds
2:53 PM 60.1 °F 57.0 °F 90% 29.81 in 10.0 mi South 8.1 mph - 0.02 in Rain Light Rain
3:53 PM 60.1 °F 55.9 °F 86% 29.81 in 10.0 mi South 9.2 mph - 0.01 in   Overcast
4:53 PM 60.1 °F 55.9 °F 86% 29.80 in 10.0 mi South 10.4 mph - 0.01 in   Overcast
5:34 PM 60.8 °F 55.4 °F 82% 29.79 in 10.0 mi South 12.7 mph 19.6 mph N/A   Overcast
5:46 PM 60.8 °F 55.4 °F 82% 29.79 in 9.0 mi South 13.8 mph - N/A   Overcast
5:53 PM 60.1 °F 55.9 °F 86% 29.79 in 8.0 mi South 13.8 mph 20.7 mph N/A   Overcast
6:02 PM 60.8 °F 55.4 °F 82% 29.79 in 10.0 mi South 12.7 mph 20.7 mph N/A   Overcast
6:53 PM 61.0 °F 55.9 °F 83% 29.79 in 10.0 mi South 11.5 mph - N/A Thunderstorm Overcast
7:06 PM 62.6 °F 55.4 °F 77% 29.79 in 10.0 mi South 11.5 mph - N/A   Overcast
7:53 PM 63.0 °F 55.0 °F 75% 29.78 in 10.0 mi SSW 15.0 mph 23.0 mph 0.00 in Rain Light Rain
8:53 PM 61.0 °F 55.9 °F 83% 29.75 in 10.0 mi South 4.6 mph - 0.02 in   Overcast
9:09 PM 60.8 °F 55.4 °F 82% 29.73 in 10.0 mi South 5.8 mph - N/A Thunderstorm Overcast
9:39 PM 60.8 °F 55.4 °F 82% 29.72 in 10.0 mi South 5.8 mph - 0.00 in   Overcast
9:53 PM 61.0 °F 55.0 °F 81% 29.71 in 10.0 mi South 6.9 mph - 0.00 in   Overcast
10:53 PM 60.1 °F 55.9 °F 86% 29.68 in 4.0 mi South 11.5 mph - 0.12 in Rain Rain
10:58 PM 60.8 °F 55.4 °F 82% 29.68 in 2.5 mi South 10.4 mph - 0.02 in Rain Rain
11:10 PM 60.8 °F 55.4 °F 82% 29.67 in 5.0 mi South 9.2 mph - 0.08 in Rain Light Rain
11:17 PM 60.8 °F 55.4 °F 82% 29.67 in 6.0 mi SSW 9.2 mph - 0.09 in Rain Light Rain
11:53 PM 60.1 °F 55.9 °F 86% 29.64 in 8.0 mi SSW 15.0 mph 26.5 mph 0.13 in Rain Light Rain